Location: ???????
(38.0831°N, 23.9638°E)
Time: 21:25:59
(UTC+00:00)

Daily predictions for brighter satellites

Satellite Brightness Start Highest point End
(mag) Time Altitude Azimuth Time Altitude Azimuth Time Altitude Azimuth
FALCON 9 R/B 3.6 17:00:32 10° WSW 17:05:54 72° S 17:26:08 10° E
H-2A R/B 3.0 17:27:01 10° S 17:31:56 51° W 17:36:46 10° NNW
Cosmos 1689 Rocket 2.1 17:29:34 10° N 17:32:24 79° WNW 17:35:12 10° SSW
Cosmos 44 4.2 17:30:17 10° S 17:34:33 30° ESE 17:39:04 10° NE
Cosmos 2219 Rocket 3.5 17:30:20 10° N 17:34:48 23° NE 17:39:15 10° ESE
SL-16 R/B 2.8 17:29:33 10° NNW 17:35:08 60° WSW 17:40:41 10° S
Orbus 7S? 2.6 17:33:11 10° SSW 17:35:35 53° SE 17:38:47 10° NE
FALCON 9 DEB 3.4 17:33:21 10° SSW 17:36:38 47° SE 17:39:56 10° ENE
ATLAS 5 CENTAUR R/B 4.4 17:35:52 10° W 17:38:29 16° NW 17:41:17 10° N
Cosmos 1455 3.3 17:39:01 10° SE 17:42:00 23° E 17:44:59 10° NE
Cosmos 2237 4.2 17:36:45 10° NNW 17:42:29 84° ENE 17:48:10 10° SSE
ERS-2 2.0 17:39:34 10° NNE 17:43:14 85° ESE 17:46:51 10° SSW
Cosmos 2034 Rocket 4.0 17:37:24 10° S 17:43:33 73° E 17:49:48 10° N
Cosmos 1825 Rocket 3.6 17:40:18 10° N 17:44:39 58° E 17:48:59 10° SSE
SAR-Lupe-4 3.9 17:45:07 10° N 17:48:41 69° WNW 17:52:14 10° SSW
Nadezhda 4 Rocket 4.0 17:44:25 10° N 17:50:43 69° E 17:56:54 10° SSE
Cosmos 1464 Rocket 4.5 17:45:08 10° SSW 17:51:25 68° W 17:57:39 10° N
Lacrosse 5 rocket 4.3 17:51:18 10° NW 17:52:50 12° NNW 17:54:24 10° N
Cosmos 1758 Rocket 3.8 17:48:53 10° N 17:53:21 75° W 17:57:49 10° S
Cosmos 1184 Rocket 4.0 17:50:22 10° NNW 17:53:25 42° W 17:56:27 10° SSW
Atlas Centaur 2 4.2 17:48:44 10° W 17:55:39 32° SSW 18:02:54 10° SE
In-Cosmos 22 Rocket 4.3 17:52:55 10° N 17:58:45 67° E 18:04:29 10° SSE
Meteor 2-10 Rocket 3.5 17:54:07 10° S 17:59:15 74° E 18:04:38 10° NNE
Cosmos 2237 Rocket 4.2 17:58:56 10° NNE 18:01:00 12° NE 18:03:04 10° ENE
Abrixas rocket 0.5 18:01:21 10° SW 18:03:14 80° SE 18:04:00 29° ENE
SJ-6B 2.8 18:00:46 12° SSE 18:04:06 52° ENE 18:07:44 10° N
Cosmos 2026 Rocket 4.4 18:01:22 10° N 18:07:04 41° ENE 18:11:54 14° SE
Cosmos 405 2.8 18:09:36 10° S 18:13:02 87° E 18:16:31 10° N
Cosmos 2227 Rocket 4.1 18:15:23 12° ENE 18:15:23 12° ENE 18:16:08 10° ENE
CZ-4 R/B 4.4 18:12:08 10° SW 18:14:47 16° W 18:17:27 10° NW
OBJECT-B 0.7 18:12:47 18° SSE 18:15:03 71° ENE 18:18:16 10° N
BREEZE M DEB (TANK) 4.0 18:01:35 10° WSW 18:17:23 75° NW 18:21:24 10° NE
ATLAS 2AS CENTAUR R/B 3.5 18:09:50 10° SW 18:17:39 65° NW 18:25:27 10° NNE
Cosmos 2251 Rocket 3.6 18:13:14 10° S 18:18:29 56° ESE 18:23:42 10° NNE
Cosmos 1634 Rocket 4.0 18:12:47 10° S 18:18:59 62° E 18:25:09 10° NNE
Cosmos 2297 Rocket 3.3 18:20:36 21° ESE 18:20:42 21° E 18:24:51 10° NE
Cosmos 2322 Rocket 3.9 18:15:56 10° NW 18:20:53 31° WSW 18:25:48 10° SSW
Cosmos 2098 Rocket 4.3 18:15:22 10° N 18:22:35 78° E 18:29:58 10° S
Cosmos 1892 2.8 18:19:22 10° N 18:23:08 75° W 18:26:36 12° S
SPOT 3 Rocket 4.4 18:23:06 24° ESE 18:25:10 32° ENE 18:29:43 10° N
Cosmos 2333 Rocket 2.2 18:19:26 10° NNW 18:25:12 68° ENE 18:28:53 23° SE
Cosmos 389 Rocket 3.9 18:26:31 23° ENE 18:26:31 23° ENE 18:28:35 10° NE
BREEZE-M DEB (TANK) 2.4 18:20:17 10° WSW 18:26:34 72° NW 18:28:34 16° NE
Ariane Rocket 2.9 18:27:19 19° SSE 18:30:57 74° ENE 18:36:00 10° N
Cosmos 2344 3.5 18:25:06 10° SSW 18:32:49 87° NW 18:40:28 10° NNE
Cosmos 1825 2.1 18:32:21 10° N 18:36:07 64° E 18:37:10 42° SE
Cosmos 2322 3.6 18:30:31 10° NNW 18:36:13 88° ENE 18:39:43 24° SSE
Landsat 7 4.5 18:41:45 33° E 18:42:33 35° ENE 18:46:52 10° N
Meteor 2-1 Rocket 4.2 18:37:02 10° S 18:42:48 85° E 18:48:44 10° N
RESURS DK-1 3.1 18:39:10 10° SW 18:43:11 54° WNW 18:47:16 10° NNE
Cosmos 1408 3.3 18:41:08 10° NNW 18:44:35 49° W 18:46:41 21° SSW
BREEZE-M (TANK) 4.5 18:25:26 10° WNW 18:47:06 59° NNE 18:50:03 28° E
Meteor 2-19 Rocket 4.5 18:44:05 10° N 18:50:15 81° W 18:55:04 17° S
Cosmos 614 Rocket 3.8 18:48:39 10° SSW 18:53:48 85° ESE 18:58:56 10° NNE
SL-16 R/B 4.3 18:52:59 10° NNE 18:54:57 12° NE 18:56:00 11° ENE
Cosmos 2058 2.9 18:51:37 10° N 18:55:48 77° W 18:57:05 43° S
Cosmos 1992 Rocket 4.1 18:54:24 10° NNW 18:59:36 70° WSW 19:01:52 34° S
IRIDIUM 104 4.2 18:59:36 42° SSE 19:01:18 71° E 19:06:30 10° N
USA 215 4.1 18:58:18 26° E 19:01:22 40° NNE 19:07:22 10° NW
Cosmos 2360 Rocket 4.1 18:57:17 10° NW 19:01:45 24° WSW 19:06:12 10° SSW
ATLAS 3B R/B 2.8 18:56:02 10° NNW 19:03:08 72° NE 19:05:56 41° SE
COSMOS 2428 2.7 18:59:57 10° NNW 19:05:42 79° WSW 19:07:47 41° S
Cosmos 2151 4.1 19:05:46 10° N 19:08:42 32° NE 19:08:42 32° NE
IRIDIUM 114 4.2 19:08:43 44° S 19:10:26 87° E 19:15:41 10° N
Cosmos 1812 Rocket 3.4 19:10:52 80° ESE 19:10:58 81° E 19:15:26 10° N
Resurs 01 Rocket 1.6 19:12:45 66° SSW 19:13:19 79° W 19:17:47 10° NNW
Cosmos 1076 Rocket 3.4 19:09:04 10° N 19:13:19 82° NE 19:13:19 82° NE
Cosmos 407 Rocket 3.3 19:13:31 67° ESE 19:13:44 68° ESE 19:18:51 10° NNE
ERS-1 Rocket 4.4 19:14:41 24° NE 19:14:41 24° NE 19:18:00 10° NNE
NOSS 0 Rocket 3.9 19:11:37 10° NNW 19:17:50 74° ENE 19:19:05 57° SE
Cosmos 2219 Rocket 2.9 19:13:33 10° NNW 19:19:00 49° WSW 19:21:14 32° SSW
IRIDIUM 103 4.4 19:17:50 43° SSW 19:19:34 77° W 19:24:49 10° N
Meteor 2-21 4.3 19:14:29 10° N 19:20:30 66° E 19:21:19 59° ESE
IGS 5A 3.8 19:27:42 61° WNW 19:27:42 61° WNW 19:31:31 10° NNW
Cosmos 1023 Rocket 4.3 19:32:13 81° NNE 19:32:13 81° NNE 19:37:04 10° NNE
Cosmos 1633 4.5 19:28:26 10° N 19:30:05 25° N 19:30:05 25° N
ATLAS 5 CENTAUR R/B 4.3 19:33:10 10° WNW 19:33:15 11° WNW 19:33:15 11° WNW
Cosmos 1809 Rocket 4.4 19:29:39 10° N 19:35:46 78° W 19:36:59 58° SSW
Cosmos 405 Rocket 4.1 19:34:01 10° NNW 19:37:21 37° WNW 19:37:21 37° WNW
Cosmos 1140 Rocket 3.4 19:38:38 77° NNW 19:38:38 77° NNW 19:43:31 10° NNE
SPOT 5 4.2 19:40:18 28° NNE 19:40:18 28° NNE 19:42:57 10° N
Spot 2 Rocket 3.7 19:41:32 62° NNE 19:41:32 62° NNE 19:45:53 10° N
Cosmos 2237 Rocket 2.2 19:40:19 10° NNW 19:45:35 75° NNE 19:45:35 75° NNE
Terra 3.4 19:50:06 26° NNE 19:50:06 26° NNE 19:52:33 10° N
SL-8 R/B 4.4 19:45:16 10° NW 19:48:58 52° NW 19:48:58 52° NW
Cosmos 2227 Rocket 2.3 19:57:04 71° NW 19:57:04 71° NW 20:02:29 10° NNE
SPOT 1/Viking Rocket 4.0 19:58:13 58° W 19:58:13 58° W 20:02:59 10° NNW
Cosmos 2297 Rocket 3.0 20:02:13 33° WSW 20:04:19 48° WNW 20:09:47 10° NNE
Cosmos 2219 3.9 20:05:52 44° W 20:06:57 50° WNW 20:12:25 10° NNE
ARIANE 5 R/B 4.2 20:09:20 33° NW 20:09:20 33° NW 20:11:56 10° NNW
Cosmos 2266 Rocket 4.2 20:03:25 10° NNW 20:09:44 67° W 20:09:47 67° W
ATLAS 3B CENTAUR R/B 4.3 20:18:04 10° WSW 20:37:56 56° S 20:38:32 56° S
SL-16 R/B 3.3 20:34:20 10° NNW 20:37:53 40° NNW 20:37:53 40° NNW
USA 215 3.8 20:45:38 50° W 20:45:38 50° W 20:50:38 10° NW
ATLAS 3B R/B 4.4 20:48:02 10° WNW 20:53:12 22° WSW 20:53:12 22° WSW
COSMOS 2455 4.3 21:18:16 32° NW 21:18:16 32° NW 21:22:45 10° N
Cosmos 2263 Rocket 4.3 21:42:46 21° N 21:42:46 21° N 21:44:35 10° NNE
SJ 16-02 4.0 23:56:01 17° NNE 23:56:01 17° NNE 23:57:09 10° NNE
